TimeEDT,TemperatureF,Dew PointF,Humidity,Sea Level PressureIn,VisibilityMPH,Wind Direction,Wind SpeedMPH,Gust SpeedMPH,PrecipitationIn,Events,Conditions,WindDirDegrees,DateUTC
12:29 AM,73.4,73.4,100,29.58,10.0,ESE,4.6,-,N/A,,Light Drizzle,110,2013-06-07 04:29:00
12:35 AM,73.4,73.4,100,29.57,10.0,East,4.6,-,N/A,,Overcast,90,2013-06-07 04:35:00
12:49 AM,73.4,73.4,100,29.57,9.0,ESE,4.6,-,N/A,Rain,Light Rain,110,2013-06-07 04:49:00
12:54 AM,73.4,73.4,100,29.56,4.0,ESE,3.5,-,N/A,Rain,Heavy Rain,110,2013-06-07 04:54:00
12:58 AM,73.8,73.8,100,29.57,2.5,East,3.5,-,0.07,Rain,Heavy Rain,90,2013-06-07 04:58:00
1:18 AM,73.4,73.4,100,29.54,2.5,ENE,5.8,-,N/A,Rain,Rain,70,2013-06-07 05:18:00
1:23 AM,73.4,73.4,100,29.54,3.0,ENE,3.5,-,N/A,Rain,Light Rain,70,2013-06-07 05:23:00
1:28 AM,73.4,73.4,100,29.54,4.0,NE,4.6,-,N/A,Rain,Light Rain,50,2013-06-07 05:28:00
1:38 AM,73.4,73.4,100,29.53,5.0,ENE,4.6,-,N/A,Rain,Rain,60,2013-06-07 05:38:00
1:58 AM,73.0,73.0,100,29.52,3.0,North,4.6,-,0.20,Rain,Rain,10,2013-06-07 05:58:00
2:08 AM,73.4,73.4,100,29.51,6.0,NNW,6.9,-,N/A,Rain,Rain,340,2013-06-07 06:08:00
2:13 AM,73.4,73.4,100,29.50,8.0,NNW,6.9,-,N/A,Rain,Light Rain,340,2013-06-07 06:13:00
2:18 AM,73.4,73.4,100,29.50,10.0,NNW,6.9,-,N/A,Rain,Light Rain,340,2013-06-07 06:18:00
2:33 AM,73.4,73.4,100,29.49,10.0,NW,8.1,-,N/A,,Light Drizzle,320,2013-06-07 06:33:00
2:58 AM,72.9,72.9,100,29.50,10.0,WNW,8.1,-,0.02,,Light Drizzle,300,2013-06-07 06:58:00
3:04 AM,73.4,73.4,100,29.49,10.0,WNW,6.9,-,N/A,,Overcast,300,2013-06-07 07:04:00
3:10 AM,73.4,73.4,100,29.50,10.0,West,9.2,-,N/A,,Light Drizzle,280,2013-06-07 07:10:00
3:25 AM,73.4,73.4,100,29.49,9.0,WNW,8.1,-,N/A,Rain,Light Rain,290,2013-06-07 07:25:00
3:30 AM,71.6,71.6,100,29.50,10.0,West,8.1,-,N/A,,Light Drizzle,260,2013-06-07 07:30:00
3:33 AM,71.6,71.6,100,29.50,10.0,West,8.1,-,N/A,,Overcast,260,2013-06-07 07:33:00
3:53 AM,71.6,71.6,100,29.51,10.0,WSW,8.1,-,N/A,,Overcast,250,2013-06-07 07:53:00
3:58 AM,72.5,72.5,100,29.52,10.0,WSW,8.1,-,0.00,,Overcast,250,2013-06-07 07:58:00
4:03 AM,73.4,73.4,100,29.51,10.0,WSW,8.1,-,N/A,,Overcast,250,2013-06-07 08:03:00
4:08 AM,73.4,73.4,100,29.51,10.0,WSW,6.9,-,N/A,,Overcast,240,2013-06-07 08:08:00
4:13 AM,73.4,73.4,100,29.52,10.0,WSW,8.1,-,N/A,,Light Drizzle,240,2013-06-07 08:13:00
4:23 AM,73.4,73.4,100,29.52,10.0,WSW,8.1,-,N/A,,Overcast,240,2013-06-07 08:23:00
4:48 AM,73.4,73.4,100,29.53,10.0,WSW,15.0,-,N/A,,Overcast,250,2013-06-07 08:48:00
4:58 AM,72.1,72.1,100,29.55,10.0,SW,13.8,-,0.01,,Overcast,230,2013-06-07 08:58:00
5:12 AM,71.6,71.6,100,29.55,9.0,SW,15.0,-,N/A,,Light Drizzle,230,2013-06-07 09:12:00
5:17 AM,71.6,71.6,100,29.55,8.0,SW,12.7,-,N/A,,Light Drizzle,230,2013-06-07 09:17:00
5:32 AM,71.6,71.6,100,29.56,5.0,SW,13.8,-,N/A,,Light Drizzle,230,2013-06-07 09:32:00
5:58 AM,70.7,70.7,100,29.58,4.0,WSW,13.8,-,0.00,,Drizzle,240,2013-06-07 09:58:00
6:08 AM,69.8,69.8,100,29.57,6.0,WSW,15.0,-,N/A,Rain,Light Rain,250,2013-06-07 10:08:00
6:18 AM,69.8,69.8,100,29.58,5.0,WSW,16.1,-,N/A,,Drizzle,250,2013-06-07 10:18:00
6:58 AM,70.5,70.5,100,29.63,9.0,WSW,13.8,-,0.01,,Light Drizzle,250,2013-06-07 10:58:00
6:59 AM,69.8,69.8,100,29.62,10.0,WSW,12.7,-,N/A,,Overcast,250,2013-06-07 10:59:00
7:09 AM,69.8,69.8,100,29.63,10.0,WSW,15.0,-,N/A,,Overcast,250,2013-06-07 11:09:00
7:11 AM,69.8,69.8,100,29.63,10.0,West,16.1,-,N/A,,Light Drizzle,260,2013-06-07 11:11:00
7:26 AM,69.8,69.8,100,29.64,9.0,West,13.8,-,N/A,,Light Drizzle,260,2013-06-07 11:26:00
7:36 AM,69.8,69.8,100,29.65,10.0,WSW,15.0,21.9,N/A,,Light Drizzle,250,2013-06-07 11:36:00
7:41 AM,69.8,69.8,100,29.65,10.0,West,16.1,23.0,N/A,,Light Drizzle,260,2013-06-07 11:41:00
7:43 AM,69.8,69.8,100,29.65,10.0,West,16.1,23.0,N/A,,Overcast,260,2013-06-07 11:43:00
7:45 AM,69.8,69.8,100,29.65,10.0,West,13.8,23.0,N/A,,Light Drizzle,260,2013-06-07 11:45:00
7:50 AM,69.8,69.8,100,29.65,10.0,West,17.3,23.0,N/A,,Light Drizzle,260,2013-06-07 11:50:00
7:58 AM,70.5,70.5,100,29.67,10.0,West,15.0,23.0,0.01,,Light Drizzle,260,2013-06-07 11:58:00
7:59 AM,69.8,69.8,100,29.66,10.0,West,13.8,23.0,N/A,,Overcast,260,2013-06-07 11:59:00
8:14 AM,71.6,71.6,100,29.68,10.0,West,15.0,21.9,N/A,,Overcast,270,2013-06-07 12:14:00
8:19 AM,71.6,71.6,100,29.68,10.0,West,15.0,21.9,N/A,,Overcast,270,2013-06-07 12:19:00
8:24 AM,71.6,71.6,100,29.68,10.0,West,18.4,23.0,N/A,,Overcast,260,2013-06-07 12:24:00
8:58 AM,71.6,71.2,99,29.73,10.0,West,12.7,21.9,0.00,,Overcast,260,2013-06-07 12:58:00
9:28 AM,73.4,71.6,94,29.74,10.0,West,12.7,20.7,N/A,,Overcast,260,2013-06-07 13:28:00
9:58 AM,75.9,70.9,84,29.76,10.0,West,15.0,24.2,N/A,,Mostly Cloudy,260,2013-06-07 13:58:00
10:58 AM,78.1,70.9,78,29.79,10.0,WSW,18.4,19.6,N/A,,Mostly Cloudy,250,2013-06-07 14:58:00
11:38 AM,78.8,69.8,74,29.80,10.0,West,10.4,-,N/A,,Overcast,270,2013-06-07 15:38:00
11:48 AM,78.8,71.6,78,29.80,10.0,WSW,17.3,19.6,N/A,,Overcast,240,2013-06-07 15:48:00
11:58 AM,80.1,70.9,73,29.81,10.0,West,13.8,23.0,N/A,,Overcast,260,2013-06-07 15:58:00
12:58 PM,82.8,71.2,68,29.81,10.0,WSW,16.1,20.7,N/A,,Mostly Cloudy,240,2013-06-07 16:58:00
1:58 PM,84.2,72.1,67,29.81,10.0,WSW,13.8,-,N/A,,Mostly Cloudy,240,2013-06-07 17:58:00
2:58 PM,86.0,71.6,62,29.80,10.0,SW,15.0,23.0,N/A,,Mostly Cloudy,230,2013-06-07 18:58:00
3:58 PM,86.7,71.4,60,29.79,10.0,SW,12.7,19.6,N/A,,Mostly Cloudy,220,2013-06-07 19:58:00
4:58 PM,88.2,71.6,58,29.79,10.0,WSW,15.0,18.4,N/A,,Scattered Clouds,240,2013-06-07 20:58:00
5:58 PM,84.2,73.0,69,29.79,10.0,SSW,6.9,-,N/A,,Scattered Clouds,200,2013-06-07 21:58:00
6:58 PM,86.5,73.2,64,29.80,10.0,SSW,12.7,-,N/A,,Scattered Clouds,200,2013-06-07 22:58:00
7:58 PM,84.0,72.3,68,29.81,10.0,South,5.8,-,N/A,,Clear,180,2013-06-07 23:58:00
8:58 PM,81.3,72.7,75,29.84,10.0,South,4.6,-,N/A,,Partly Cloudy,170,2013-06-08 00:58:00
9:20 PM,80.6,73.4,79,29.84,10.0,South,3.5,-,N/A,,Light Drizzle,180,2013-06-08 01:20:00
9:48 PM,78.8,73.4,83,29.85,10.0,SSE,4.6,-,N/A,,Clear,160,2013-06-08 01:48:00
9:58 PM,78.8,72.9,82,29.87,10.0,South,4.6,-,0.00,,Clear,180,2013-06-08 01:58:00
10:58 PM,77.5,73.2,86,29.88,10.0,South,3.5,-,N/A,,Scattered Clouds,170,2013-06-08 02:58:00
11:58 PM,76.3,73.2,90,29.90,10.0,South,4.6,-,N/A,,Clear,180,2013-06-08 03:58:00